Gage, OK

2:40 AM CDT on August 24, 2016 (GMT -0500)
Gage

Weather History for KGAG - March, 2013

Change the Weather History Date:

Friday, March 1, 2013

  Actual Average Record
Temperature  
Mean Temperature 31 °F -  
Max Temperature 41 °F 60 °F 82 °F (1967)
Min Temperature 21 °F 31 °F 5 °F (1980)
Degree Days  
Heating Degree Days 34    
Moisture  
Dew Point 26 °F    
Average Humidity 82    
Maximum Humidity 96    
Minimum Humidity 67    
Precipitation  
Precipitation 0.00 in - - ()
Sea Level Pressure  
Sea Level Pressure 30.31 in    
Wind  
Wind Speed 6 mph (NNW)    
Max Wind Speed 17 mph    
Max Gust Speed -    
Visibility 10 miles    
Events      
Averages and records for this station are not official NWS values.
T = Trace of Precipitation, MM = Missing Value Source: NWS Daily Summary

Daily Weather History Graph

Daily Weather History Graph

Search for Another Location

Airport or City:

Trip Planner

Search our weather history database for the weather conditions in past years. The results will help you decide how hot, cold, wet, or windy it might be!

Date:

Astronomy

Mar. 01, 2013 Rise Set
Actual Time 7:09 AM CST 6:34 PM CST
Civil Twilight 6:43 AM CST 6:59 PM CST
Nautical Twilight 6:13 AM CST 7:29 PM CST
Astronomical Twilight 5:43 AM CST 7:59 PM CST
Moon 10:59 PM CST (3/1) 9:05 AM CST (3/1)
Length of Visible Light 12h 16m
Length of Day
11h 25m
Waning Gibbous, 83% of the Moon is Illuminated
Mar 1
Waning Gibbous
Mar 4
Last Quarter
Mar 11
New
Mar 19
First Quarter
Mar 27
Full

Hourly Weather History & Observations

Time (CST) Temp. Windchill Dew Point Humidity Pressure Visibility Wind Dir Wind Speed Gust Speed Precip Events Conditions
12:53 AM 24.1 °F 19.7 °F 21.9 °F 91% 30.27 in 9.0 mi South 3.5 mph - N/A   Mostly Cloudy
1:53 AM 24.1 °F 19.7 °F 21.9 °F 91% 30.26 in 10.0 mi WSW 3.5 mph - N/A   Overcast
2:53 AM 21.0 °F - 19.0 °F 92% 30.25 in 6.0 mi Calm Calm - N/A   Clear
3:53 AM 21.0 °F 16.2 °F 19.9 °F 96% 30.24 in 6.0 mi WSW 3.5 mph - N/A   Overcast
4:53 AM 23.0 °F 15.8 °F 19.9 °F 88% 30.25 in 9.0 mi SW 5.8 mph - N/A   Mostly Cloudy
5:53 AM 24.8 °F 19.1 °F 21.2 °F 86% 30.20 in 10.0 mi WSW 4.6 mph - N/A   Mostly Cloudy
6:53 AM 23.0 °F 15.8 °F 21.0 °F 92% 30.26 in 9.0 mi WSW 5.8 mph - N/A   Scattered Clouds
7:53 AM 25.0 °F - 21.9 °F 88% 30.29 in 10.0 mi Calm Calm - N/A   Partly Cloudy
8:53 AM 34.0 °F 24.6 °F 27.0 °F 75% 30.30 in 10.0 mi NNW 13.8 mph - N/A   Partly Cloudy
9:53 AM 36.0 °F 26.0 °F 28.0 °F 73% 30.31 in 10.0 mi NNW 17.3 mph - N/A   Clear
10:53 AM 37.0 °F 27.7 °F 28.9 °F 73% 30.33 in 10.0 mi North 16.1 mph - N/A   Partly Cloudy
11:41 AM 35.6 °F 25.9 °F 28.4 °F 75% 30.30 in 10.0 mi North 16.1 mph - N/A   Mostly Cloudy
11:50 AM 37.4 °F 29.3 °F 28.4 °F 70% 30.30 in 10.0 mi North 12.7 mph - N/A   Mostly Cloudy
11:53 AM 37.0 °F 28.5 °F 28.9 °F 73% 30.35 in 10.0 mi North 13.8 mph - N/A   Mostly Cloudy
12:53 PM 37.0 °F 28.5 °F 30.0 °F 76% 30.34 in 10.0 mi North 13.8 mph - N/A   Clear
1:53 PM 39.0 °F 33.4 °F 30.0 °F 70% 30.33 in 10.0 mi North 8.1 mph - N/A   Partly Cloudy
2:53 PM 41.0 °F 36.4 °F 30.9 °F 67% 30.32 in 10.0 mi North 6.9 mph - N/A   Clear
3:53 PM 39.0 °F 32.3 °F 30.0 °F 70% 30.32 in 10.0 mi North 10.4 mph - N/A   Clear
4:53 PM 39.0 °F 33.4 °F 30.0 °F 70% 30.31 in 10.0 mi NNE 8.1 mph - N/A   Partly Cloudy
5:53 PM 37.4 °F 30.8 °F 30.2 °F 75% 30.26 in 10.0 mi NNE 9.2 mph - N/A   Clear
6:53 PM 33.1 °F 28.7 °F 28.9 °F 85% 30.34 in 10.0 mi NNE 4.6 mph - N/A   Clear
7:53 PM 30.9 °F 25.2 °F 28.0 °F 89% 30.36 in 10.0 mi NE 5.8 mph - N/A   Clear
8:53 PM 30.0 °F 23.2 °F 27.0 °F 88% 30.36 in 10.0 mi NNE 6.9 mph - N/A   Clear
9:53 PM 28.0 °F 24.2 °F 26.1 °F 92% 30.38 in 10.0 mi NE 3.5 mph - N/A   Clear
10:53 PM 27.0 °F 21.6 °F 25.0 °F 92% 30.39 in 10.0 mi NW 4.6 mph - N/A   Clear
11:53 PM 27.0 °F - 25.0 °F 92% 30.39 in 10.0 mi Calm Calm - N/A   Clear